Regional Weather Roundup
Issued by NWS State College, PA

Home | Current Version | Previous Version | Text Only | Print | Product List | Glossary Off
Versions: 1 2 3 4 5 6 7 8 9 10 11 12 13 14 15 16 17 18 19 20 21 22 23 24 25 26 27 28 29 30 31 32 33 34 35 36 37 38 39 40 41 42 43 44 45 46 47 48 49 50

000
ASUS41 KCTP 210910
RWRCTP

REGIONAL WEATHER ROUNDUP
NATIONAL WEATHER SERVICE STATE COLLEGE PA
400 AM EST SUN JAN 21 2018

Note: "fair" indicates few or no clouds below 12,000 feet with no
significant weather and/or obstructions to visibility.

* = STATION THAT DOES NOT REPORT PRECIPITATION /E.G. RAIN...SNOW...ETC/
    THUNDER OR FOG.

PAZ002>004-007>009-013>016-020>023-029>032-211000-
WESTERN PENNSYLVANIA

CITY           SKY/WX    TMP DP  RH WIND       PRES   REMARKS
ERIE           CLOUDY    37  32  82 SW5       30.10S
MEADVILLE      CLOUDY    36  32  85 S6        30.08F
FRANKLIN*      CLOUDY    37  31  78 CALM      30.09F
NEW CASTLE     CLOUDY    38  33  82 CALM      30.11F
BEAVER COUNTY  NOT AVBL
BUTLER*        CLOUDY    39  32  76 SW5       30.12R
PITTSBURGH INT DRIZZLE   42  37  82 SW8       30.11S
PITTSBURGH     CLOUDY    40  34  79 SW10      30.11S
INDIANA*       CLOUDY    37  34  87 CALM      30.15S
LATROBE        CLOUDY    39  36  87 SW7       30.14S
WASHINGTON CO* LGT RAIN  41  40  96 S5        30.15S FOG
$$

PAZ004>006-010>012-017>019-024>028-033>037-041-042-045-046-049>053-211000-
CENTRAL PENNSYLVANIA

CITY           SKY/WX    TMP DP  RH WIND       PRES   REMARKS
BRADFORD       CLOUDY    35  31  85 CALM      30.06S
DUBOIS           N/A    N/A N/A N/A MISG      30.08S
CLEARFIELD     CLOUDY    38  33  82 CALM      30.09F
JOHNSTOWN      CLOUDY    40  36  86 W12       30.07S
ALTOONA        CLOUDY    44  37  76 W8        30.09F
STATE COLLEGE  CLOUDY    40  33  76 W7        30.10S
WILLIAMSPORT   CLOUDY    26  25  96 CALM      30.12R
SELINSGROVE    CLOUDY    28  26  92 CALM      30.12F
FT INDIANTOWN  CLOUDY    28  28 100 CALM      30.11S
CAPITAL CITY   MOCLDY    30  27  88 VRB3      30.13S
HARRISBURG     FAIR      27  26  96 CALM      30.12S
YORK           FAIR      26  25  96 CALM      30.12S
$$

PAZ038>040-043-044-047-048-054-055-060>062-067>071-211000-
EASTERN PENNSYLVANIA

CITY           SKY/WX    TMP DP  RH WIND       PRES   REMARKS
SCRANTON       FAIR      29  26  89 CALM      30.08R
MOUNT POCONO   FAIR      32  26  78 W8        30.03R
ALLENTOWN      FAIR      34  26  72 SW3       30.09S
QUAKERTOWN*    FAIR      34  28  80 MISG      30.10S
READING        FAIR      34  30  85 CALM      30.11R
LANCASTER      FAIR      28  27  96 NW7       30.12R
COATESVILLE    FAIR      34  30  86 NW5       30.11S
POTTSTOWN      FAIR      29  25  85 CALM      30.12S
BLUE BELL      FAIR      30  28  93 CALM      30.13R
DOYLESTOWN     FAIR      37  28  70 SW6       30.09S
WILLOW GROVE   NOT AVBL
NORTH PHILA    FAIR      32  25  75 SW3       30.13R
PHILADELPHIA   FAIR      33  28  81 W3        30.13S
$$




USA.gov is the U.S. government's official web portal to all federal, state and local government web resources and services.